Location: Hackbridge
(51.3833°N, 0.1500°W)
Time: 02:00:23
(UTC+00:00)

Cosmos 2082 Rocket - Pass Details

Date: 13 October 2019
Orbit: 832 x 854 km, 71.0° (Epoch: 21 November)

Event Time Altitude Azimuth Distance (km) Brightness Sun altitude
Rises 21:36:12 0° 320° (NW) 3,435 6.3 -38.9°
Reaches altitude 10° 21:39:22 10° 303° (WNW) 2,491 5.3 -39.2°
Enters shadow 21:42:08 18° 275° (W) 1,991 4.5 -39.5°
